Wind_Speed
33 33 33 34 35 36 36 36 36 36 36 37 38 37 37 36 35 34 33 31 31 30 31 31 32 33 34 35 36 37 38 40 41 42 43 44 43 43 42 42 42 42
35 35 34 34 35 35 36 36 36 37 37 37 37 37 37 37 36 35 34 34 33 33 33 34 34 35 36 37 38 39 40 41 42 43 45 45 44 44 43 42 43 42
37 37 37 37 37 37 38 38 38 38 38 38 37 37 37 37 37 37 36 36 35 35 36 36 37 37 38 38 39 40 41 42 43 44 46 46 45 44 43 43 44 42
40 40 39 39 39 39 40 40 39 39 38 38 38 38 38 38 38 38 37 38 38 38 39 39 40 40 40 40 41 41 42 43 44 46 47 47 45 45 44 44 44 42
42 42 41 41 41 42 42 41 41 40 39 39 39 39 39 39 39 40 40 40 40 41 42 42 42 42 42 43 43 43 44 45 46 47 48 47 46 46 46 45 43 42
44 43 42 42 43 44 44 43 43 42 41 40 41 41 41 42 42 42 43 43 43 44 44 45 45 45 45 45 45 46 46 47 47 48 49 49 48 48 47 45 43 41
46 45 44 44 44 45 45 45 45 45 44 43 44 44 44 45 45 46 46 46 46 46 47 47 48 47 47 48 48 48 48 49 50 50 50 50 50 49 48 45 43 42
48 48 47 46 46 46 47 47 47 47 47 47 47 47 47 48 48 49 49 49 48 49 49 49 50 50 50 50 50 50 51 51 51 52 52 52 51 50 48 46 43 42
50 50 49 49 49 49 49 49 50 50 50 50 50 50 50 51 51 51 52 52 51 51 51 51 52 53 53 53 53 53 53 53 53 54 54 53 52 51 49 46 44 43
52 52 51 51 51 51 52 52 52 52 52 52 52 53 53 53 53 53 54 54 54 54 54 54 54 55 56 56 56 55 55 55 55 55 55 55 54 52 50 47 44 43
55 55 54 54 53 53 54 54 55 55 55 55 55 55 55 56 56 56 56 56 56 57 57 57 57 58 58 58 58 58 58 58 58 57 57 57 56 54 51 47 44 42
59 58 58 57 57 56 56 56 56 57 57 58 58 58 58 59 59 58 59 59 59 60 60 60 61 61 61 61 61 61 60 60 60 59 59 59 57 55 52 48 44 42
63 62 62 61 60 60 59 59 59 59 59 59 60 60 60 61 61 61 61 61 61 61 62 62 63 63 64 64 64 64 63 62 62 61 61 60 59 56 53 49 44 42
66 65 64 64 63 63 63 63 62 62 61 61 61 61 62 63 63 63 63 63 63 63 64 64 65 65 66 66 66 66 66 65 64 63 62 61 60 57 54 50 45 42
67 66 66 65 65 65 65 65 65 65 64 64 63 64 64 64 65 65 65 65 65 65 65 66 66 67 68 68 68 68 67 67 66 65 63 62 60 58 55 52 47 44
67 67 66 65 65 66 66 67 66 66 66 65 66 66 66 66 66 66 66 66 67 67 67 68 68 69 69 70 69 69 68 68 66 65 64 62 60 57 55 54 50 46
67 66 65 65 67 68 68 68 67 66 66 67 67 67 67 68 67 67 68 68 68 69 69 69 69 70 70 70 70 69 69 68 67 65 63 62 60 57 56 55 53 49
66 66 65 66 68 70 71 70 69 68 69 69 69 69 70 70 70 70 70 70 70 70 70 70 70 70 70 69 69 68 68 67 66 64 63 61 59 57 56 55 54 51
65 65 65 66 68 70 71 72 72 72 73 74 74 74 73 73 73 73 73 72 72 71 71 71 70 70 69 69 68 68 67 66 65 64 62 60 58 57 56 55 53 51
64 65 65 66 67 68 69 71 72 73 75 76 76 77 76 76 76 75 75 75 74 73 73 72 72 71 70 70 69 68 67 66 65 64 62 60 58 56 55 54 53 52
62 63 65 66 68 69 70 72 73 74 75 76 77 77 77 77 77 76 75 74 74 73 73 72 72 71 70 70 69 68 67 66 65 64 62 59 56 54 54 54 53 52
59 60 61 63 65 67 69 72 74 75 76 76 76 76 76 76 76 75 74 73 72 72 71 71 70 70 70 69 68 67 66 65 64 63 61 58 56 55 54 54 54 54
57 58 58 60 61 63 65 68 71 73 74 75 76 75 75 75 74 74 74 73 72 71 70 70 69 69 69 68 67 66 65 64 63 62 60 59 57 56 56 55 55 55
56 57 57 58 59 60 62 64 67 69 71 73 73 73 73 73 73 73 73 72 71 71 70 69 68 68 67 66 66 65 64 64 63 62 60 59 58 57 56 56 56 56
56 56 57 58 59 60 61 63 65 67 69 70 70 70 70 71 71 71 71 71 71 70 70 69 68 67 67 66 66 66 65 65 64 63 62 61 59 57 56 56 56 57
60 58 57 57 58 59 61 64 65 66 67 68 68 68 69 69 70 70 70 70 70 70 70 69 68 67 67 67 67 67 67 67 66 65 64 61 59 57 56 56 56 57
Wind_Direction
262 262 262 261 261 261 262 262 261 260 260 261 263 264 264 263 262 262 262 263 263 264 265 267 270 272 274 276 278 280 282 285 288 290 292 294 297 298 300 301 300 300
261 262 262 261 261 262 262 261 259 258 258 260 262 262 262 261 261 261 261 262 263 264 266 268 270 272 273 275 277 279 281 284 287 289 290 293 296 298 299 300 300 301
260 260 261 261 261 261 261 260 260 259 260 260 260 260 259 258 258 259 260 261 263 264 266 268 270 272 273 275 276 278 281 283 286 288 289 292 295 297 299 299 300 301
257 258 259 260 261 261 261 261 261 261 260 259 259 257 256 256 257 258 260 261 262 264 266 268 270 272 273 274 276 278 279 282 285 287 288 291 294 296 298 299 300 300
254 255 256 257 258 259 260 260 261 260 259 258 257 256 255 256 257 258 259 260 262 263 265 268 270 272 273 274 276 277 279 281 284 285 287 290 293 295 297 299 300 297
253 253 253 254 255 256 257 259 260 259 258 257 255 255 254 255 256 258 259 260 262 263 265 267 269 272 273 274 276 277 279 281 283 285 286 289 292 294 296 298 299 295
254 254 253 253 253 254 255 256 257 258 257 256 255 255 255 255 256 258 260 261 263 264 266 267 269 271 273 274 276 277 278 280 282 284 286 288 290 292 295 297 296 293
255 255 254 254 254 254 254 255 255 256 256 256 256 256 256 257 258 259 261 262 264 265 266 267 269 270 272 274 276 277 278 279 281 283 285 287 289 292 295 296 295 292
255 255 254 254 254 254 254 255 255 255 256 256 257 257 258 259 259 261 262 263 265 266 267 268 269 270 272 274 275 276 277 279 281 283 285 287 289 291 294 294 293 291
256 256 256 255 255 254 254 255 255 256 257 257 258 259 259 259 260 261 263 264 266 267 267 269 269 270 271 273 274 276 277 278 280 282 284 286 288 291 293 293 292 290
257 257 258 257 257 256 255 255 255 256 257 257 258 259 260 260 261 262 263 264 265 266 267 268 270 271 272 273 274 275 276 278 279 281 283 285 287 290 291 291 290 288
257 257 258 258 258 258 258 258 257 257 257 258 258 259 260 260 261 261 262 263 264 265 266 268 269 271 272 273 274 275 276 277 279 280 282 283 286 288 290 290 288 286
257 258 258 259 260 261 261 261 260 260 260 259 260 260 260 261 261 262 263 264 264 265 266 267 269 270 272 273 274 275 276 277 278 279 281 282 284 286 289 289 286 284
258 259 260 261 262 263 263 263 263 263 262 262 262 262 262 262 262 263 264 265 265 265 266 267 268 269 271 272 273 274 275 276 277 279 280 282 283 285 287 288 284 281
262 262 263 264 265 265 265 265 265 265 265 264 264 263 263 263 263 264 264 265 265 265 266 267 268 269 271 272 273 274 275 276 277 278 279 281 282 284 285 286 284 280
265 266 267 267 267 266 265 265 265 265 265 264 264 263 263 263 263 264 265 265 265 265 266 267 268 269 270 272 273 274 275 276 277 278 279 280 282 283 284 285 284 281
265 266 268 268 267 265 264 264 264 264 264 264 263 264 264 264 265 265 266 265 265 266 266 267 268 269 270 272 273 274 275 276 277 278 279 280 281 282 283 283 283 281
262 263 264 264 264 264 264 264 264 264 264 264 264 264 264 265 266 266 266 266 267 267 267 268 269 270 271 272 273 274 275 276 277 278 279 280 280 281 282 282 282 281
261 261 261 262 262 263 264 265 266 265 265 265 265 265 265 265 265 266 266 267 268 268 269 269 270 271 272 273 273 275 276 277 277 278 278 279 280 280 281 281 280 280
260 260 261 261 262 263 264 265 265 266 265 266 266 266 266 266 266 266 267 268 269 269 270 270 271 272 273 273 274 275 276 276 277 278 278 279 280 280 280 279 279 279
259 259 259 260 260 261 262 263 264 265 265 266 266 267 267 267 268 268 269 270 270 270 271 271 271 272 273 273 274 275 275 276 276 277 278 278 279 279 279 279 279 279
260 260 260 260 260 260 261 262 263 264 265 267 268 268 269 269 270 270 271 271 271 271 271 271 272 272 272 273 274 274 275 276 276 277 277 278 278 278 279 279 279 279
264 263 262 261 261 261 261 261 262 263 264 266 268 269 270 270 271 272 272 272 272 272 272 272 272 273 273 273 274 274 275 275 276 276 278 279 279 279 279 279 279 278
268 267 265 263 262 262 261 261 262 262 263 264 266 267 269 270 271 272 272 273 273 273 273 273 273 274 274 274 274 274 274 275 276 277 279 280 280 280 279 279 277 276
272 271 269 267 265 263 262 261 261 262 262 263 265 266 267 269 270 271 271 272 273 273 273 274 275 275 275 275 275 275 275 276 277 279 280 281 281 279 278 277 275 274
273 272 271 269 268 266 264 262 262 261 262 263 264 265 267 268 270 270 271 272 272 272 273 273 274 275 275 275 275 276 277 277 279 280 281 280 279 278 276 274 273 272
Height
5825 5824 5824 5824 5824 5824 5824 5824 5823 5823 5823 5822 5822 5822 5822 5821 5821 5820 5820 5820 5820 5819 5819 5818 5817 5816 5815 5814 5813 5812 5811 5810 5809 5808 5806 5804 5803 5801 5800 5798 5795 5793
5820 5820 5820 5820 5820 5820 5819 5819 5818 5818 5818 5818 5818 5818 5818 5817 5817 5816 5816 5816 5816 5815 5814 5814 5813 5812 5811 5810 5809 5808 5807 5806 5805 5803 5801 5800 5799 5797 5796 5793 5791 5789
5815 5815 5815 5815 5815 5815 5814 5814 5814 5814 5814 5814 5814 5814 5813 5813 5812 5812 5812 5811 5811 5811 5810 5809 5808 5807 5806 5805 5804 5803 5803 5802 5800 5799 5797 5796 5794 5793 5791 5789 5787 5785
5810 5810 5811 5811 5811 5810 5810 5810 5810 5810 5810 5810 5810 5809 5809 5809 5808 5808 5808 5807 5807 5806 5805 5804 5803 5802 5802 5801 5800 5799 5798 5797 5796 5794 5792 5791 5790 5788 5786 5784 5782 5780
5805 5805 5806 5806 5806 5805 5805 5805 5806 5806 5806 5805 5805 5805 5804 5804 5804 5803 5803 5802 5802 5801 5800 5799 5798 5797 5797 5796 5795 5794 5793 5792 5791 5789 5788 5787 5785 5783 5782 5780 5778 5776
5800 5800 5801 5801 5801 5800 5800 5801 5801 5801 5801 5801 5800 5800 5800 5800 5799 5799 5798 5797 5797 5796 5795 5794 5793 5792 5792 5791 5790 5789 5788 5787 5786 5784 5783 5782 5780 5778 5777 5775 5773 5771
5795 5795 5796 5795 5796 5795 5796 5796 5795 5795 5795 5795 5795 5795 5795 5795 5794 5793 5793 5792 5792 5791 5790 5789 5788 5787 5786 5786 5785 5784 5783 5782 5781 5779 5778 5777 5775 5773 5772 5770 5768 5766
5790 5790 5790 5790 5790 5790 5790 5790 5790 5790 5789 5789 5790 5789 5789 5789 5789 5788 5788 5787 5787 5786 5785 5784 5783 5782 5781 5780 5779 5778 5778 5776 5775 5774 5772 5771 5770 5768 5766 5765 5763 5761
5784 5785 5785 5785 5785 5785 5785 5784 5784 5784 5784 5784 5784 5784 5784 5784 5783 5783 5782 5782 5782 5781 5780 5779 5778 5777 5775 5774 5774 5773 5772 5771 5769 5768 5767 5766 5764 5762 5761 5759 5758 5756
5778 5779 5779 5779 5779 5779 5779 5778 5778 5778 5778 5778 5779 5778 5778 5778 5777 5777 5777 5776 5776 5775 5774 5773 5772 5771 5769 5768 5768 5767 5766 5765 5763 5762 5761 5760 5758 5757 5755 5754 5752 5751
5771 5772 5772 5772 5773 5772 5772 5772 5772 5773 5772 5773 5772 5772 5772 5771 5771 5771 5771 5770 5770 5769 5768 5767 5766 5765 5763 5762 5761 5761 5760 5759 5757 5756 5755 5754 5752 5751 5750 5748 5747 5746
5764 5765 5765 5765 5766 5766 5766 5766 5766 5766 5766 5766 5766 5766 5766 5765 5765 5765 5764 5764 5763 5762 5762 5761 5760 5758 5757 5756 5755 5754 5754 5752 5751 5750 5749 5747 5746 5745 5744 5742 5741 5740
5755 5757 5757 5758 5759 5759 5759 5759 5759 5760 5760 5760 5760 5760 5759 5758 5758 5758 5757 5757 5756 5756 5755 5754 5753 5752 5750 5749 5748 5747 5747 5746 5745 5744 5742 5741 5740 5739 5737 5736 5735 5734
5747 5749 5751 5752 5752 5753 5753 5752 5753 5753 5753 5753 5753 5752 5752 5751 5751 5750 5750 5750 5749 5748 5748 5747 5746 5745 5744 5742 5741 5740 5739 5739 5738 5737 5736 5735 5734 5733 5731 5730 5729 5728
5741 5742 5744 5745 5746 5746 5746 5745 5746 5746 5745 5746 5745 5744 5744 5743 5743 5743 5742 5742 5741 5740 5740 5739 5738 5738 5736 5735 5734 5733 5732 5731 5731 5730 5729 5728 5727 5726 5725 5723 5723 5722
5734 5735 5737 5739 5739 5739 5738 5738 5738 5738 5738 5738 5737 5736 5736 5735 5735 5735 5735 5734 5733 5733 5732 5732 5731 5730 5729 5727 5726 5725 5725 5724 5724 5723 5722 5721 5720 5719 5718 5716 5716 5715
5728 5729 5731 5732 5732 5731 5731 5731 5731 5731 5731 5730 5729 5729 5728 5728 5728 5728 5727 5726 5726 5725 5724 5724 5724 5723 5721 5720 5719 5718 5717 5716 5716 5715 5715 5714 5713 5712 5711 5710 5709 5708
5721 5722 5724 5724 5723 5723 5722 5722 5723 5723 5722 5721 5721 5720 5720 5720 5720 5719 5719 5718 5718 5718 5717 5717 5716 5715 5713 5712 5711 5710 5709 5709 5709 5708 5707 5707 5706 5705 5704 5703 5702 5701
5713 5714 5716 5716 5716 5715 5715 5715 5714 5714 5713 5711 5711 5711 5711 5711 5711 5710 5710 5710 5709 5710 5709 5709 5708 5707 5705 5704 5704 5703 5702 5701 5701 5700 5700 5699 5699 5698 5697 5696 5695 5694
5703 5705 5707 5708 5708 5708 5708 5707 5706 5705 5704 5702 5701 5701 5702 5702 5702 5701 5702 5701 5701 5701 5701 5700 5700 5698 5697 5696 5696 5695 5694 5693 5693 5693 5692 5692 5691 5691 5690 5689 5688 5687
5694 5695 5697 5697 5698 5698 5698 5698 5696 5696 5695 5693 5693 5693 5693 5693 5693 5693 5693 5692 5692 5692 5692 5692 5691 5689 5688 5688 5688 5687 5686 5685 5685 5685 5684 5684 5683 5683 5682 5681 5680 5679
5684 5685 5686 5687 5687 5688 5688 5688 5687 5686 5686 5684 5684 5684 5684 5684 5684 5683 5684 5683 5683 5683 5683 5683 5682 5680 5680 5680 5679 5678 5678 5677 5677 5677 5676 5676 5675 5675 5674 5673 5672 5672
5674 5675 5676 5676 5677 5679 5679 5678 5678 5677 5677 5675 5675 5676 5675 5674 5674 5674 5674 5674 5674 5673 5674 5674 5673 5671 5671 5671 5670 5670 5670 5670 5669 5669 5668 5668 5667 5667 5666 5666 5665 5664
5664 5665 5666 5667 5668 5669 5669 5670 5669 5669 5668 5667 5667 5667 5666 5665 5665 5665 5665 5665 5664 5664 5664 5664 5664 5662 5662 5662 5662 5661 5661 5661 5661 5660 5660 5660 5659 5658 5658 5657 5657 5656
5656 5657 5657 5657 5658 5659 5660 5661 5661 5660 5659 5658 5658 5658 5658 5657 5656 5657 5657 5656 5655 5655 5655 5655 5655 5654 5653 5653 5653 5652 5652 5652 5652 5652 5652 5651 5650 5650 5650 5649 5648 5648
5647 5648 5648 5649 5650 5650 5650 5651 5651 5651 5650 5650 5649 5649 5649 5649 5648 5648 5648 5648 5647 5646 5646 5646 5646 5645 5644 5643 5643 5643 5643 5643 5643 5643 5643 5642 5642 5642 5642 5641 5640 5640